TimeCDT,TemperatureF,Dew PointF,Humidity,Sea Level PressureIn,VisibilityMPH,Wind Direction,Wind SpeedMPH,Gust SpeedMPH,PrecipitationIn,Events,Conditions,WindDirDegrees,DateUTC
12:55 AM,48.6,35.1,60,29.97,10.0,SSE,9.2,-,N/A,,Clear,160,2012-10-09 05:55:00
1:55 AM,48.6,35.1,60,29.95,10.0,SSE,12.7,-,N/A,,Clear,160,2012-10-09 06:55:00
2:55 AM,48.0,34.7,60,29.94,10.0,SSE,12.7,-,N/A,,Clear,160,2012-10-09 07:55:00
3:55 AM,46.8,35.2,64,29.91,10.0,South,11.5,-,N/A,,Clear,170,2012-10-09 08:55:00
4:55 AM,47.5,36.0,64,29.89,10.0,SSE,12.7,-,N/A,,Clear,160,2012-10-09 09:55:00
5:55 AM,47.5,37.4,68,29.88,10.0,SSE,12.7,-,N/A,,Clear,160,2012-10-09 10:55:00
6:55 AM,46.9,39.0,74,29.90,10.0,SSE,10.4,-,N/A,,Clear,160,2012-10-09 11:55:00
7:55 AM,45.5,39.9,81,29.89,10.0,SSE,8.1,-,N/A,,Clear,150,2012-10-09 12:55:00
8:55 AM,49.5,42.1,76,29.88,10.0,SSE,15.0,-,N/A,,Clear,160,2012-10-09 13:55:00
9:55 AM,54.0,44.1,69,29.88,10.0,South,17.3,-,N/A,,Clear,170,2012-10-09 14:55:00
10:55 AM,59.5,46.6,62,29.89,10.0,South,16.1,-,N/A,,Clear,170,2012-10-09 15:55:00
11:55 AM,62.1,47.1,58,29.89,10.0,South,10.4,-,N/A,,Partly Cloudy,190,2012-10-09 16:55:00
12:01 PM,62.6,48.2,59,29.89,10.0,SW,10.4,-,N/A,,Mostly Cloudy,220,2012-10-09 17:01:00
12:21 PM,60.8,46.4,59,29.90,10.0,WSW,8.1,-,N/A,,Mostly Cloudy,240,2012-10-09 17:21:00
12:55 PM,64.4,47.3,54,29.89,10.0,South,6.9,-,N/A,,Partly Cloudy,180,2012-10-09 17:55:00
1:55 PM,65.3,48.0,54,29.88,10.0,Calm,Calm,-,N/A,,Clear,0,2012-10-09 18:55:00
2:55 PM,66.0,48.0,52,29.89,10.0,NNE,3.5,-,N/A,,Scattered Clouds,30,2012-10-09 19:55:00
3:55 PM,68.9,48.0,47,29.91,10.0,NW,8.1,-,N/A,,Scattered Clouds,320,2012-10-09 20:55:00
4:55 PM,66.7,45.0,45,29.92,10.0,NNE,12.7,20.7,N/A,,Scattered Clouds,20,2012-10-09 21:55:00
5:55 PM,65.3,43.0,44,29.96,10.0,NNE,20.7,-,N/A,,Partly Cloudy,30,2012-10-09 22:55:00
6:55 PM,60.3,41.0,49,30.01,10.0,NNE,19.6,-,N/A,,Clear,30,2012-10-09 23:55:00
7:55 PM,55.8,42.3,60,30.05,10.0,NNE,17.3,-,N/A,,Clear,30,2012-10-10 00:55:00
8:55 PM,52.9,41.5,65,30.09,10.0,NNE,11.5,-,N/A,,Clear,20,2012-10-10 01:55:00
9:55 PM,50.7,40.1,67,30.13,10.0,NNE,10.4,-,N/A,,Clear,30,2012-10-10 02:55:00
10:55 PM,50.2,38.7,65,30.15,10.0,NNE,12.7,-,N/A,,Clear,30,2012-10-10 03:55:00
11:55 PM,48.6,31.1,51,30.17,10.0,NE,9.2,-,N/A,,Clear,40,2012-10-10 04:55:00